Miscellaneous Local Product
Issued by NWS Hastings, NE

Home | Current Version | Previous Version | Text Only | Print | Product List | Glossary On
Versions: 1 2 3 4 5 6 7 8 9 10 11 12 13 14 15 16 17 18 19 20 21 22 23 24 25 26 27 28 29 30 31 32 33 34 35 36 37 38 39 40 41 42 43 44 45 46 47 48 49 50
000
AXUS43 KGID 221602
MISGRI

GID CWA HOURLY WEATHER ROUNDUP
NATIONAL WEATHER SERVICE HASTINGS NE
1000 AM CST MON DEC 22 2014

NOTE: "FAIR" INDICATES FEW OR NO CLOUDS BELOW 12,000 FEET WITH NO
SIGNIFICANT WEATHER AND/OR OBSTRUCTIONS TO VISIBILITY.

...SOUTH CENTRAL NEBRASKA...

CITY           SKY/WX    TMP DP  RH WIND       PRES   REMARKS
GRAND ISLAND   LGT RAIN  41  36  82 NW15      29.53S
HASTINGS       LGT RAIN  42  35  76 NW17      29.53S
KEARNEY        CLOUDY    39  34  81 W9        29.56S WCI  33
ORD            NOT AVBL
YORK           CLOUDY    41  39  93 NW17      29.50S
AURORA         CLOUDY    42  38  89 NW15G23   29.52R
LEXINGTON      PTSUNNY   39  35  86 NW13      29.57S WCI  31
HOLDREGE       CLOUDY    38  34  84 W8        29.57R WCI  32
HEBRON         CLOUDY    42  37  84 NW13      29.53R

...NEBRASKA PANHANDLE...

CITY           SKY/WX    TMP DP  RH WIND       PRES   REMARKS
CHADRON        MOSUNNY   34  26  72 W10       29.65S WCI  26
ALLIANCE       MOSUNNY   31  23  72 W20       29.63S WCI  19
SCOTTSBLUFF    MOSUNNY   33  25  72 W10       29.69S WCI  25
SIDNEY         MOSUNNY   34  26  72 NW16      29.67S WCI  24

...WESTERN AND NORTH CENTRAL NEBRASKA...

CITY           SKY/WX    TMP DP  RH WIND       PRES   REMARKS
VALENTINE      CLOUDY    38  31  76 NW10      29.51F WCI  31
AINSWORTH      CLOUDY    39  31  74 NW18G26   29.50S WCI  29
ONEILL         CLOUDY    39  37  92 NW12      29.48S WCI  32
BROKEN BOW     MOSUNNY   41  34  76 NW14      29.53S
IMPERIAL       PTSUNNY   39  27  62 NW17      29.64F WCI  30
NORTH PLATTE   PTSUNNY   37  30  75 W16       29.59S WCI  28
MCCOOK         CLOUDY    40  32  73 W8        29.62F WCI  34

...EASTERN NEBRASKA...

CITY           SKY/WX    TMP DP  RH WIND       PRES   REMARKS
NORFOLK        CLOUDY    41  39  93 NW13      29.46F
SO SIOUX CITY  LGT RAIN  43  41  93 S13       29.48F FOG
TEKAMAH        LGT RAIN  43  41  93 SE14      29.49F
COLUMBUS       CLOUDY    41  36  81 NW10      29.49S
ALBION         CLOUDY    40  37  87 NW13      29.49S WCI  33
OMAHA EPPLEY   LGT RAIN  42  40  92 SE15      29.52F FOG
MILLARD        LGT RAIN  42  40  94 SE10G16   29.51S
LINCOLN        CLOUDY    43  42  97 W7        29.50S
NEBRASKA CITY  LGT RAIN  41  41 100 SE13      29.52F
BEATRICE       DRIZZLE   42  42  99 SW6       29.49F
FALLS CITY     LGT RAIN  43  32  65 SE10      29.53F

...NORTHERN KANSAS...

CITY           SKY/WX    TMP DP  RH WIND       PRES   REMARKS
GOODLAND       PTSUNNY   37  30  75 NW13      29.70F WCI  29
HILL CITY      PTSUNNY   45  32  60 NW16G23   29.64R
NORTON         MOSUNNY   39  30  70 W17       29.61S WCI  30
PHILLIPSBURG   SUNNY     45  37  76 W14G21    29.61R
SMITH CENTER   SUNNY     41  36  81 NW15      29.59R
BELOIT         MOSUNNY   43  39  87 W8        29.57R
HAYS           PTSUNNY   43  30  61 NW14      29.62R
RUSSELL        CLOUDY    43  38  82 NW16      29.59R
CONCORDIA      LGT RAIN  42  39  89 NW9       29.54R
SALINA         CLOUDY    44  38  79 W16       29.57R
TOPEKA         LGT RAIN  46  44  93 S8        29.55F FOG



USA.gov is the U.S. government's official web portal to all federal, state and local government web resources and services.